Location: Unspecified
(50.7693°N, 0.0000°E)
Time: 04:43:35
(UTC+00:00)

deb Explorer IX - Pass Details

Date: 22 June 2019
Orbit: 540 x 1111 km, 38.8° (Epoch: 20 August)

Event Time Altitude Azimuth Distance (km) Brightness Sun altitude
Rises 13:17:19 0° 213° (SSW) 3,804 ? 59.0°
Reaches altitude 10° 13:20:46 10° 197° (SSW) 2,912 ? 58.7°
Maximum altitude 13:25:39 20° 154° (SSE) 2,323 ? 58.2°
Drops below altitude 10° 13:30:36 10° 111° (ESE) 2,970 ? 57.7°
Sets 13:34:09 0° 96° (E) 3,904 ? 57.4°
